Location: Waco, TX
(31.5480°N, 97.1670°W)
Time: 23:30:59
(UTC-06:00)

OTV 5 (USA 277) - Visible Passes

Search period start: 23 January 2018 00:00
Search period end: 02 February 2018 00:00
Orbit: 404 x 417 km, 43.0° (Epoch: 07 September)

Date Brightness Start Highest point End Pass type
(mag) Time Alt. Az. Time Alt. Az. Time Alt. Az.
23 Jan ? 18:22:23 10° WSW 18:25:45 82° NNW 18:29:07 10° NE visible
23 Jan ? 20:01:01 10° WNW 20:02:01 14° NW 20:02:01 14° NW visible
24 Jan ? 19:09:25 10° WNW 19:12:12 23° NNW 19:13:29 18° NNE visible
25 Jan ? 18:17:56 10° W 18:21:00 32° NNW 18:24:05 10° NE visible
25 Jan ? 19:57:24 10° NW 19:57:40 11° NNW 19:57:40 11° NNW visible
26 Jan ? 19:05:43 10° NW 19:07:43 15° NNW 19:09:03 12° NNE visible
28 Jan ? 19:02:02 10° NNW 19:03:22 12° N 19:04:34 10° NNE visible
29 Jan ? 19:48:30 10° NNW 19:48:43 11° NNW 19:48:43 11° NNW visible
30 Jan ? 18:57:33 10° NNW 18:59:03 12° N 19:00:09 11° NNE visible
31 Jan ? 19:43:16 10° NNW 19:44:24 16° NNW 19:44:24 16° NNW visible
01 Feb ? 18:52:24 10° NNW 18:54:41 17° NNE 18:55:58 14° NE visible
